• In Moldova, Republic
  • List of Countries
  • For 7 days
  • Water Temperature
  • Satellite Maps
  • Weather Map
  • Weather Widgets
  • user-avatar
    Login

    Hourly Weather Ischgl

    Today, 20 August, Sunday

    Time Temperature Precipitation Wind Pressure Humidity
    00:00 +3°C° 0.1 mm 2 mps 577 mmHg 95%
    01:00 +2°C° 0.1 mm 2 mps 577 mmHg 94%
    02:00 +2°C° 0 mm 2 mps 577 mmHg 95%
    03:00 +1°C° 0 mm 2 mps 576 mmHg 95%
    04:00 +1°C° 0 mm 2 mps 576 mmHg 95%
    05:00 +1°C° 0 mm 2 mps 577 mmHg 94%
    06:00 +2°C° 0 mm 2 mps 577 mmHg 92%
    07:00 +2°C° 0 mm 2 mps 578 mmHg 90%
    08:00 +4°C° 0 mm 2 mps 578 mmHg 82%
    09:00 +5°C° 0 mm 2 mps 579 mmHg 73%
    10:00 +7°C° 0 mm 2 mps 580 mmHg 65%
    11:00 +8°C° 0 mm 2 mps 580 mmHg 60%
    12:00 +9°C° 0 mm 2 mps 580 mmHg 54%
    13:00 +10°C° 0 mm 2 mps 581 mmHg 49%
    14:00 +10°C° 0 mm 2 mps 581 mmHg 49%
    15:00 +10°C° 0 mm 2 mps 581 mmHg 49%
    16:00 +10°C° 0 mm 3 mps 581 mmHg 49%
    17:00 +8°C° 0 mm 2 mps 580 mmHg 58%
    18:00 +6°C° 0 mm 2 mps 579 mmHg 67%
    19:00 +5°C° 0 mm 2 mps 579 mmHg 76%
    20:00 +4°C° 0 mm 2 mps 579 mmHg 81%
    21:00 +3°C° 0 mm 1 mps 578 mmHg 85%
    22:00 +2°C° 0 mm 1 mps 578 mmHg 90%
    23:00 +2°C° 0 mm 1 mps 578 mmHg 89%

    Tomorrow, 21 August, Monday

    Time Temperature Precipitation Wind Pressure Humidity
    00:00 +2°C° 0 mm 1 mps 578 mmHg 89%
    01:00 +1°C° 0 mm 1 mps 578 mmHg 88%
    02:00 +1°C° 0 mm 1 mps 577 mmHg 86%
    03:00 +1°C° 0 mm 1 mps 577 mmHg 83%
    04:00 0°C° 0 mm 1 mps 577 mmHg 80%
    05:00 +2°C° 0 mm 1 mps 577 mmHg 74%
    06:00 +3°C° 0 mm 1 mps 578 mmHg 67%
    07:00 +4°C° 0 mm 1 mps 579 mmHg 60%
    08:00 +7°C° 0 mm 1 mps 580 mmHg 52%
    09:00 +9°C° 0 mm 1 mps 581 mmHg 45%
    10:00 +10°C° 0 mm 2 mps 582 mmHg 37%
    11:00 +12°C° 0 mm 2 mps 582 mmHg 36%
    12:00 +12°C° 0 mm 2 mps 582 mmHg 35%
    13:00 +13°C° 0 mm 2 mps 582 mmHg 34%
    14:00 +13°C° 0 mm 2 mps 582 mmHg 37%
    15:00 +13°C° 0 mm 2 mps 581 mmHg 41%
    16:00 +12°C° 0 mm 2 mps 581 mmHg 44%
    17:00 +10°C° 0 mm 2 mps 580 mmHg 54%
    18:00 +8°C° 0 mm 2 mps 580 mmHg 64%
    19:00 +6°C° 0 mm 2 mps 579 mmHg 75%
    20:00 +6°C° 0 mm 1 mps 579 mmHg 80%
    21:00 +5°C° 0 mm 1 mps 579 mmHg 85%
    22:00 +4°C° 0 mm 1 mps 578 mmHg 89%
    23:00 +3°C° 0 mm 1 mps 578 mmHg 89%

    Day after tomorrow, 22 August, Tuesday

    Time Temperature Precipitation Wind Pressure Humidity
    00:00 +3°C° 0 mm 1 mps 578 mmHg 88%
    01:00 +3°C° 0 mm 1 mps 578 mmHg 87%
    02:00 +3°C° 0 mm 1 mps 577 mmHg 85%
    03:00 +2°C° 0 mm 1 mps 577 mmHg 82%
    04:00 +2°C° 0 mm 1 mps 577 mmHg 80%
    05:00 +4°C° 0 mm 1 mps 578 mmHg 75%
    06:00 +5°C° 0 mm 1 mps 579 mmHg 70%
    07:00 +7°C° 0 mm 1 mps 579 mmHg 65%
    08:00 +9°C° 0 mm 1 mps 580 mmHg 59%
    09:00 +11°C° 0 mm 1 mps 581 mmHg 53%
    10:00 +13°C° 0 mm 1 mps 582 mmHg 47%
    11:00 +14°C° 0 mm 1 mps 582 mmHg 45%
    12:00 +15°C° 0 mm 1 mps 582 mmHg 44%
    13:00 +16°C° 0 mm 2 mps 583 mmHg 43%
    14:00 +16°C° 0 mm 2 mps 582 mmHg 45%
    15:00 +15°C° 0 mm 2 mps 582 mmHg 47%
    16:00 +15°C° 0 mm 2 mps 582 mmHg 48%
    17:00 +13°C° 0 mm 2 mps 581 mmHg 60%
    18:00 +11°C° 0 mm 1 mps 580 mmHg 71%
    19:00 +9°C° 0 mm 1 mps 579 mmHg 82%
    20:00 +8°C° 0 mm 1 mps 578 mmHg 85%
    21:00 +7°C° 0 mm 1 mps 578 mmHg 89%
    22:00 +6°C° 0 mm 1 mps 578 mmHg 93%
    23:00 +5°C° 0 mm 1 mps 577 mmHg 91%

    23 August, Wednesday

    Time Temperature Precipitation Wind Pressure Humidity
    00:00 +5°C° 0 mm 1 mps 577 mmHg 90%
    01:00 +5°C° 0 mm 1 mps 577 mmHg 89%
    02:00 +5°C° 0 mm 1 mps 577 mmHg 86%
    03:00 +5°C° 0 mm 1 mps 577 mmHg 83%
    04:00 +5°C° 0 mm 1 mps 577 mmHg 81%
    05:00 +6°C° 0 mm 1 mps 577 mmHg 75%
    06:00 +8°C° 0 mm 1 mps 578 mmHg 70%
    07:00 +9°C° 0 mm 1 mps 579 mmHg 65%
    08:00 +11°C° 0 mm 1 mps 580 mmHg 56%
    09:00 +14°C° 0 mm 1 mps 581 mmHg 47%
    10:00 +16°C° 0 mm 1 mps 582 mmHg 39%
    11:00 +18°C° 0 mm 1 mps 583 mmHg 37%
    12:00 +18°C° 0 mm 1 mps 583 mmHg 35%
    13:00 +18°C° 0 mm 2 mps 583 mmHg 33%
    14:00 +18°C° 0 mm 2 mps 583 mmHg 35%
    15:00 +18°C° 0 mm 2 mps 583 mmHg 37%
    16:00 +17°C° 0 mm 2 mps 582 mmHg 38%
    17:00 +15°C° 0 mm 1 mps 581 mmHg 50%
    18:00 +13°C° 0 mm 1 mps 580 mmHg 61%
    19:00 +10°C° 0 mm 1 mps 579 mmHg 72%
    20:00 +9°C° 0 mm 1 mps 579 mmHg 74%
    21:00 +9°C° 0 mm 1 mps 579 mmHg 76%
    22:00 +8°C° 0 mm 1 mps 579 mmHg 78%
    23:00 +8°C° 0 mm 1 mps 579 mmHg 77%

    24 August, Thursday

    Time Temperature Precipitation Wind Pressure Humidity
    00:00 +8°C° 0 mm 1 mps 579 mmHg 75%
    01:00 +8°C° 0 mm 1 mps 579 mmHg 74%
    02:00 +6°C° 0 mm 2 mps 579 mmHg 74%
    03:00 +6°C° 0 mm 2 mps 579 mmHg 74%
    04:00 +6°C° 0 mm 2 mps 579 mmHg 75%
    05:00 +8°C° 0 mm 1 mps 579 mmHg 73%
    06:00 +9°C° 0 mm 1 mps 580 mmHg 72%
    07:00 +10°C° 0 mm 1 mps 580 mmHg 70%
    08:00 +12°C° 0 mm 1 mps 581 mmHg 63%
    09:00 +14°C° 0 mm 1 mps 582 mmHg 56%
    10:00 +16°C° 0 mm 1 mps 583 mmHg 48%
    11:00 +16°C° 0.2 mm 1 mps 583 mmHg 50%
    12:00 +16°C° 0.2 mm 1 mps 583 mmHg 51%
    13:00 +18°C° 0.2 mm 1 mps 583 mmHg 53%
    14:00 +16°C° 0.8 mm 1 mps 583 mmHg 56%
    15:00 +16°C° 0.8 mm 1 mps 583 mmHg 60%
    16:00 +15°C° 0.8 mm 1 mps 582 mmHg 63%
    17:00 +14°C° 0.6 mm 1 mps 582 mmHg 70%
    18:00 +13°C° 0.6 mm 1 mps 581 mmHg 76%
    19:00 +11°C° 0.6 mm 1 mps 581 mmHg 82%
    20:00 +11°C° 0.3 mm 1 mps 581 mmHg 83%
    21:00 +10°C° 0.3 mm 1 mps 581 mmHg 84%
    22:00 +8°C° 0.3 mm 2 mps 581 mmHg 84%
    23:00 +8°C° 0 mm 2 mps 580 mmHg 84%

    25 August, Friday

    Time Temperature Precipitation Wind Pressure Humidity
    00:00 +8°C° 0 mm 2 mps 580 mmHg 85%
    01:00 +7°C° 0 mm 2 mps 580 mmHg 85%
    02:00 +7°C° 0 mm 2 mps 580 mmHg 84%
    03:00 +7°C° 0 mm 2 mps 580 mmHg 84%
    04:00 +7°C° 0 mm 2 mps 580 mmHg 84%
    05:00 +8°C° 0 mm 2 mps 580 mmHg 82%
    06:00 +8°C° 0 mm 2 mps 581 mmHg 79%
    07:00 +9°C° 0 mm 2 mps 581 mmHg 77%
    08:00 +13°C° 0 mm 2 mps 582 mmHg 69%
    09:00 +15°C° 0 mm 1 mps 583 mmHg 60%
    10:00 +18°C° 0 mm 1 mps 584 mmHg 51%
    11:00 +19°C° 0.1 mm 1 mps 584 mmHg 49%
    12:00 +20°C° 0.1 mm 1 mps 585 mmHg 47%
    13:00 +21°C° 0.1 mm 1 mps 585 mmHg 44%
    14:00 +20°C° 0.4 mm 1 mps 584 mmHg 48%
    15:00 +19°C° 0.4 mm 1 mps 584 mmHg 51%
    16:00 +19°C° 0.4 mm 1 mps 584 mmHg 54%
    17:00 +16°C° 0.8 mm 1 mps 583 mmHg 64%
    18:00 +14°C° 0.8 mm 1 mps 582 mmHg 73%
    19:00 +12°C° 0.8 mm 1 mps 581 mmHg 83%
    20:00 +11°C° 0.5 mm 1 mps 581 mmHg 84%
    21:00 +11°C° 0.5 mm 1 mps 581 mmHg 86%
    22:00 +9°C° 0.5 mm 2 mps 581 mmHg 87%
    23:00 +9°C° 0.1 mm 2 mps 581 mmHg 87%
    Show more